This is the latest recevied weather packets stored in our database for station/object GCEMA. If no packets are shown the sender has not sent any weather packets the latest 10 day(s).
| Time | Temp. | Humidity | Pressure | Rain* | Wind** | Luminosity | Snow |
|---|---|---|---|---|---|---|---|
| 1777467096 | 16.67° C | - | 1009.6 hPa | 0 mm | 0 m/s | - | - |
| 1777466916 | 16.67° C | - | 1009.5 hPa | 0 mm | 0 m/s | - | - |
| 1777466737 | 16.11° C | - | 1009.4 hPa | 0 mm | 0 m/s | - | - |
| 1777466557 | 16.11° C | - | 1009.4 hPa | 0 mm | 0 m/s | - | - |
| 1777466375 | 16.11° C | - | 1009.3 hPa | 0 mm | 0 m/s | - | - |
| 1777466198 | 15° C | - | 1009.2 hPa | 0 mm | 0 m/s | - | - |
| 1777466016 | 15.56° C | - | 1009 hPa | 0 mm | 0 m/s | - | - |
| 1777465838 | 16.11° C | - | 1008.8 hPa | 0 mm | 0 m/s | - | - |
| 1777465656 | 16.67° C | - | 1008.8 hPa | 0 mm | 0 m/s | - | - |
| 1777465474 | 16.67° C | - | 1008.7 hPa | 0 mm | 0 m/s | - | - |
| 1777465294 | 16.67° C | - | 1008.7 hPa | 0 mm | 0 m/s | - | - |
| 1777465115 | 16.67° C | - | 1008.7 hPa | 0 mm | 0 m/s | - | - |
| 1777464935 | 16.67° C | - | 1008.8 hPa | 0 mm | 0 m/s | - | - |
| 1777464757 | 16.67° C | - | 1008.7 hPa | 0 mm | 0 m/s | - | - |
| 1777464573 | 16.67° C | - | 1008.7 hPa | 0 mm | 0 m/s | - | - |
| 1777464214 | 16.67° C | - | 1008.7 hPa | 0 mm | 0 m/s | - | - |
| 1777463855 | 16.11° C | - | 1008.6 hPa | 0 mm | 0 m/s | - | - |
| 1777463672 | 16.11° C | - | 1008.8 hPa | 0 mm | 0 m/s | - | - |
| 1777463493 | 16.11° C | - | 1008.8 hPa | 0 mm | 0 m/s | - | - |
| 1777463313 | 14.44° C | - | 1008.8 hPa | 0 mm | 0 m/s | - | - |
| 1777463133 | 15° C | - | 1008.8 hPa | 0 mm | 0 m/s | - | - |
| 1777462954 | 15° C | - | 1008.7 hPa | 0 mm | 0 m/s | - | - |
| 1777462771 | 16.11° C | - | 1008.9 hPa | 0 mm | 0 m/s | - | - |
| 1777462592 | 16.67° C | - | 1009.1 hPa | 0 mm | 0 m/s | - | - |
| 1777462412 | 16.67° C | - | 1009 hPa | 0 mm | 0 m/s | - | - |
* Rain latest hour (hover to see other rain measurements)
** Current wind speed in m/s (hover to see current wind gust speed)